{"data":{"norad_id":57667,"epoch":"2026-09-20T14:33:28.792800Z","epoch_age_seconds":122417,"freshness":"FRESH","line1":"1 57667U 23124E   26263.60658325  .00005920  00000+0  18625-3 0  9997","line2":"2 57667  53.1594  18.8925 0000720  84.6505 275.4580 15.34392384173442","mean_motion":15.34392384,"eccentricity":7.2e-5,"inclination_deg":53.1594,"raan_deg":18.8925,"arg_perigee_deg":84.6505,"mean_anomaly_deg":275.458,"bstar":0.00018625,"rev_number":17344,"period_min":93.848223897337,"perigee_km":462.23333453062,"apogee_km":463.21841878485,"semimajor_km":6840.8628766577,"source":"CELESTRAK","updated_at":"2026-09-21T09:00:33.670422Z"}}